Flag for Brazil Weather past 2 weeks in Salvador, Bahia, Brazil

Now
81 °F

Scattered clouds.


Feels Like: 85 °F
Forecast: 73 / 80 °F
Wind: 14 mph from East

Location: Salvador Aeroporto

Current Time: Sep 1, 2014 at 11:23:57 AM

Latest Report: Sep 1, 2014 at 11:00 AM


Visibility: N/A

Pressure: 30.07 "Hg

Humidity: 74%

Dew point: 72 °F

Location of SalvadorLocation

Historic Weather in Salvador — Graph

°F

Salvador temperature yesterday

Maximum temperature yesterday: 81 °F (at 9:00 AM)
Minimum temperature yesterday: 75 °F (at 12:00 AM)
Average temperature yesterday: 78 °F

Past Weeks' High & Low Weather Summary

 TemperatureHumidityPressure
High82 °F (Aug 17, 12:00 PM)100% (Aug 25, 2:00 PM)30.15 "Hg (Aug 25, 2:00 PM)
Low39 °F (Aug 25, 2:00 PM)54% (Aug 23, 3:00 PM)29.95 "Hg (Aug 28, 3:00 AM)
Average77 °F76%30.06 "Hg
* Reported Aug 17 10:00 AM — Sep 1 10:00 AM, Salvador, Weather by CustomWeather, © 2014

Note: Actual official high and low records may vary slightly from our data, if they occured in-between our weather recording intervals... More about our weather records

Advertising

Salvador weather history for previous 24 hours

 ConditionsComfort  
Time TempWeatherWind HumidityBarometerVisibility
10:00 AM
Sep 1
81 °FScattered clouds.8 mph74%30.07 "HgN/A
9:00 AM81 °FPassing clouds.3 mph74%30.07 "HgN/A
8:00 AM79 °FPassing clouds.6 mph79%30.07 "HgN/A
7:00 AM75 °FScattered clouds.5 mph89%30.04 "HgN/A
6:00 AM70 °FScattered clouds.2 mph94%30.04 "HgN/A
5:00 AM70 °FPartly cloudy.1 mph100%30.04 "HgN/A
4:00 AM70 °FPassing clouds.No wind94%30.04 "HgN/A
3:00 AM72 °FPassing clouds.2 mph88%30.04 "HgN/A
2:00 AM72 °FPassing clouds.3 mph94%30.04 "HgN/A
1:00 AM73 °FSprinkles. Passing clouds.2 mph89%N/A5 mi
12:00 AM75 °FPassing clouds.3 mph78%30.07 "HgN/A
11:00 PM
Aug 31
77 °FPassing clouds.5 mph74%30.07 "HgN/A
10:00 PM77 °FPassing clouds.7 mph79%30.07 "HgN/A
9:00 PM77 °FPassing clouds.9 mph79%30.07 "HgN/A
8:00 PM77 °FPassing clouds.7 mph79%30.04 "HgN/A
7:00 PM75 °FPassing clouds.7 mph78%30.04 "HgN/A
6:00 PM77 °FPassing clouds.8 mph74%30.01 "HgN/A
5:00 PM79 °FPassing clouds.13 mph70%30.01 "HgN/A
4:00 PM81 °FPassing clouds.12 mph66%30.01 "HgN/A
3:00 PM81 °FPassing clouds.12 mph70%30.01 "HgN/A
2:00 PM81 °FPassing clouds.12 mph66%30.01 "HgN/A
1:00 PM81 °FPassing clouds.10 mph66%30.04 "HgN/A
12:00 PM81 °FPassing clouds.12 mph70%30.07 "HgN/A
11:00 AM81 °FScattered clouds.10 mph66%30.09 "HgN/A
Weather by CustomWeather, © 2014

See weather overviewHow to use our weather pages